CO-66
1 32791U 08021J 14162.13210872 .00001545 00000-0 18009-3 0 9368
2 32791 097.7017 214.6152 0014485 198.4366 161.6327 14.86554778331159
RS-30
1 32953U 08025A 14163.24050391 .00000010 00000-0 00000 0 0 43
2 32953 082.5026 204.2861 0019419 162.9668 197.2070 12.43047977274645
METEOR-M
1 35865U 09049A 14162.24421644 -.00000042 00000-0 22577-6 0 6162
2 35865 098.5499 209.8371 0003200 102.6050 257.5490 14.21923070245497
RS-38
1 35869U 09049E 14163.06038940 .00000031 00000-0 33041-4 0 5386
2 35869 098.5433 210.4294 0005853 109.9368 277.0249 14.22212545245644
JUGNU
1 37839U 11058B 14160.76289549 .00000399 00000-0 70997-4 0 6339
2 37839 019.9621 299.9366 0019102 263.5105 204.7341 14.12311742137502
SRMSAT
1 37841U 11058D 14162.51081896 .00000344 00000-0 44008-4 0 6370
2 37841 019.9723 308.5498 0011689 222.5326 210.5404 14.10353218137555
RAX-2
1 37853U 11061D 14163.03300255 .00008498 00000-0 58137-3 0 8296
2 37853 101.7138 190.2153 0217040 071.7489 320.2376 14.89378512141894
AUBIESAT
1 37854U 11061E 14163.02429878 .00009125 00000-0 60520-3 0 8117
2 37854 101.7177 192.0438 0214869 069.0396 323.7045 14.90692313141944
HRBE
1 37855U 11061F 14162.62326670 .00007821 00000-0 52645-3 0 8186
2 37855 101.7180 190.8221 0216890 071.4182 043.5877 14.90004365141855
RS-39
1 38051U 11062C 14163.12766451 .00058941 00000-0 71332-3 0 6234
2 38051 051.6261 248.2514 0001523 209.4113 222.6845 15.60100610133328
E-STAR
1 38079U 12006C 14163.08723887 .00087088 49269-5 10122-2 0 8807
2 38079 069.4524 005.1142 0371818 002.2814 130.1402 15.08336645122699
GOLIAT
1 38085U 12006J 14162.69834160 .00082860 46916-5 10231-2 0 1103
2 38085 069.4566 013.0915 0395162 006.3878 354.2101 15.02358920122454
HORYU-2
1 38340U 12025D 14162.85640017 .00001706 00000-0 27652-3 0 8777
2 38340 098.2600 119.9630 0011731 187.3994 172.7086 14.72523254111018
RS-40
1 38735U 12041C 14162.48762950 .00000024 00000-0 10000-3 0 5928
2 38735 082.4761 291.0933 0015907 266.8437 093.0824 12.42559865 84871
PROITERES
1 38756U 12047B 14163.17130819 .00000596 00000-0 96559-4 0 9143
2 38756 098.2287 251.3828 0013057 045.4851 314.7421 14.74965658 94447
BEESAT-3
1 39134U 13015E 14162.47063024 .00004802 00000-0 34430-3 0 6099
2 39134 064.8701 156.6415 0027441 309.1846 050.6882 15.05223849 62809
BEESAT-2
1 39136U 13015G 14163.32986024 .00004390 00000-0 32083-3 0 5958
2 39136 064.8703 154.3848 0027709 309.2987 050.5716 15.04629644 62922
LO-75
1 39382U 13064C 14162.31762867 .00067119 00000-0 14235-2 0 2661
2 39382 040.4948 130.0630 0018205 201.1924 158.8197 15.43929068 31150
ZACUBE-1
1 39417U 13066B 14162.95865159 .00001282 00000-0 17916-3 0 3211
2 39417 097.7765 233.7603 0060653 260.3519 099.0893 14.78091426 29929
TRITON-1
1 39427U 13066M 14163.13374891 .00000685 00000-0 12331-3 0 1750
2 39427 097.7634 229.8496 0117193 266.8557 091.9299 14.65379523 29650
DELFIN3XT
1 39428U 13066N 14162.63928296 .00001121 00000-0 20217-3 0 1779
2 39428 097.7630 228.6419 0127586 270.0803 088.5816 14.63274289 29521
GOMX-1
1 39430U 13066Q 14163.22436952 .00000654 00000-0 13364-3 0 5534
2 39430 097.7581 227.2426 0155276 273.4974 084.8495 14.56817824 29493
MO-76
1 39436U 13066W 14162.99713164 .00008525 00000-0 88400-3 0 2351
2 39436 097.7786 236.6934 0024559 264.5653 095.3073 14.90013327 30101
LO-74
1 39440U 13066AA 14162.42581266 .00000793 00000-0 12476-3 0 1729
2 39440 097.7706 231.6334 0082716 263.9984 095.1814 14.73036798 29732
PUCPSAT-1
1 39442U 13066AC 14162.51142103 .00001527 00000-0 17909-3 0 1704
2 39442 097.7811 235.8092 0033275 264.8221 094.9275 14.86056612 28781
LO-78
1 39569U 98067EN 14163.28031375 .00213303 00000-0 11587-2 0 3187
2 39569 051.6419 113.3483 0007380 058.2545 089.0904 15.78802091 16255
SHINAISAT
1 39572U 14009A 14163.17162932 .00047783 00000-0 40842-3 0 1426
2 39572 065.0053 060.3590 0016594 289.2434 070.6923 15.69022140 16326
OPUSAT
1 39575U 14009D 14162.86080062 .00207376 21782-4 79594-3 0 1748
2 39575 065.0036 056.8124 0013820 287.9411 072.0240 15.87074454 16369
TEIKYOSAT
1 39576U 14009E 14162.83381010 .00062974 00000-0 46547-3 0 1474
2 39576 065.0097 060.3907 0015686 301.9691 057.9934 15.72434854 16297
IFT-1
1 39577U 14009F 14162.85810945 .00117168 00000-0 62613-3 0 1569
2 39577 064.9998 058.3847 0014225 297.8643 062.1070 15.79652027 16339
CO-77
1 39578U 14009G 14137.79435183 .04930316 75580-5 46746-3 0 1855
2 39578 064.9698 141.4483 0010610 288.0688 072.6747 16.37966192 12465
STARS-II
1 39579U 14009H 14116.06110564 .20186783 77451-5 52661-3 0 1329
2 39579 064.9886 219.0071 0013010 293.8065 069.6132 16.44611049 9028
SPROUT
1 39770U 14029E 14162.80219711 .00000883 00000-0 11621-3 0 315
2 39770 097.8722 260.0395 0009544 338.4836 021.6023 14.82588774 2746
